Location: Aldenham
(51.6667°N, 0.3500°W)
Time: 15:18:24
(UTC+00:00)

Transit 2A Rocket - Pass Details

Date: 19 February 2026
Orbit: 583 x 900 km, 66.7° (Epoch: 10 March)

Event Time Altitude Azimuth Distance (km) Brightness Sun altitude
Rises 21:29:42 0° 314° (NW) 3,480 9.3 -37.4°
Reaches altitude 10° 21:32:49 10° 329° (NNW) 2,502 8.3 -37.8°
Enters shadow 21:35:28 19° 353° (N) 1,885 7.3 -38.1°
